Showing default

S-NET D, 43186

Orbit data source: Space-Track

S-NET D, 43186 is a payload satellite owned by TUB (DE) in SSO that was launched on Thu, 01 Feb 2018 UTC via a SOYUZ-2-1A launch vehicle from the Vostochny Cosmodrome (VOSTO). Payloads include a variety of satellites, spacecraft, and rockets equipped with specific instruments for various scientific and technological missions. These include communications satellites like Starlink; space stations such as the ISS; scientific satellites like the Hubble; Earth observation satellites from companies like Planet Labs, Umbra, and HawkEye 360; GPS; miniature CubeSats for education and research; and military/defense satellites.

Loading next visibility...
S-NET D details
Identifier
43186, 2018-014G
Orbit
SSO
Last TLE update7 hours ago
Origin
Flag of DETUB (DE / GER)
ManufacturerTUB
MissionOperational Commercial Com/Tech
Bus & MotorTUBIX10, Unknown motor
Mass8 kg wet, 8 kg dry
Launch date (UTC)
2018-02-01 (7 years ago)
Launch vehicle
SOYUZ-2-1A
Launch site
Vostochny Cosmodrome (VOSTO)
Object type
Payload
Rocket body
Debris
Shape & HBRBox, 0.24 m
Radar Cross Section0.086 m², Medium (>0.1 m² and < 1m²)

Expand to show TLE details & history

TLE from 7 hours ago
0 S-NET D
1 43186U 18014G   24361.27809592  .00011267  00000-0  72004-3 0  9997
2 43186  97.5763 260.0670 0011446  72.9079 287.3402 15.08742840377420
Epoch: 2024-12-26T06:40Z
Definitive object data (Epoch: 2024-12-26T06:40:27.487Z)
Latitude-0.00005°
Longitude64.69269°
Altitude540.758 km
Speed7.593 km/s
True Right ascension17h 20m 16s
True Declination0° 00' 00"
Sunlit
Object was in daylight at TLE epoch
Visualization TLE readout
Latitude-55.50873°
Longitude-126.10333°
Altitude569.204 km
Speed7.571 km/s
Apparent Right ascension02h 51m 01s
Apparent Declination-50° 21' 07"
Sunlit
Object is in daylight
Visualization observer readout
Local Sidereal Time13:26:47
Azimuth227.718° WSW
Elevation-71.948°
Doppler factor1
Orbital elements
Apogee altitude544.944 km
Perigee altitude529.113 km
Semi-major axis6,915.166 km
Eccentricity0.0011446
Inclination97.5763°
RAAN260.067°
Arg. of periapsis72.9079°
True anomaly287.21495°
Mean anomaly287.3402°
Eccentric anomaly287.27758°
Mean motion3.77433 °/min
BSTAR0.00072004
Orbital period95.38 mins
Loading maneuver chart data...
Loading historical data...
Loading historical data...
Loading historical data...
Loading historical data...
Loading historical data...
Loading historical data...
Loading historical data...

S-NET D Visibility forecast

Observer location: undefined°, undefined

Span
Click to sort rows by Start time (UTC) header in descending order
Start Az.
Max El. time (UTC)
Max El. Az.
Max El.
End time (UTC)
End Az.
6 mins2024-12-26 17:57:00.429Z198.441° SSW2024-12-26 17:59:00.429Z243.952° WSW32.765°2024-12-26 18:03:00.429Z332.982° NNW
4 mins2024-12-27 05:33:00.429Z58.332° ENE2024-12-27 05:35:00.429Z98.466° ESE19.61°2024-12-27 05:37:00.429Z135.867° SSE
4 mins2024-12-27 07:08:00.429Z321.415° NNW2024-12-27 07:09:00.429Z298.354° NW22.847°2024-12-27 07:12:00.429Z238.629° WSW
|